EW0520 Weather Reports


Display with metric or nautical units.
time (UTC)temp
F
wind
direction
speed
MPH
gust
MPH
rain 1hr
in
rain 24hr
in
rain mn
in
humidity
%
barometer
mb
20260504001504 55 218 4.0 9.0 0.00 0.00 0.00 46 1011.2
20260504001004 55 221 5.0 14.0 0.00 0.00 0.00 46 1011.2
20260504000504 56 226 6.0 14.0 0.00 0.00 0.00 45 1011.3
20260504000005 56 231 7.0 15.0 0.00 0.00 0.00 45 1011.1
20260503235504 56 232 7.0 15.0 0.00 0.00 0.00 44 1011.1
20260503235005 56 228 8.0 18.0 0.00 0.00 0.00 46 1011.1
20260503234504 56 229 9.0 22.0 0.00 0.00 0.00 43 1011.2
20260503233504 56 236 8.0 19.0 0.00 0.00 0.00 44 1011.2
20260503233005 56 232 7.0 14.0 0.00 0.00 0.00 45 1011.3
20260503232505 56 231 7.0 17.0 0.00 0.00 0.00 46 1011.4
20260503232004 56 233 6.0 17.0 0.00 0.00 0.00 44 1011.3
20260503231504 56 231 6.0 14.0 0.00 0.00 0.00 45 1011.3
20260503231004 56 231 6.0 14.0 0.00 0.00 0.00 45 1011.3
20260503230504 56 229 5.0 13.0 0.00 0.00 0.00 44 1011.3
20260503230005 56 226 6.0 14.0 0.00 0.00 0.00 44 1011.3
20260503225504 56 226 6.0 14.0 0.00 0.00 0.00 43 1011.3
20260503224504 56 229 7.0 16.0 0.00 0.00 0.00 44 1011.4
20260503223504 56 230 8.0 18.0 0.00 0.00 0.00 43 1011.5
20260503223005 57 227 8.0 19.0 0.00 0.00 0.00 42 1011.5
20260503222504 57 230 8.0 19.0 0.00 0.00 0.00 42 1011.6
20260503222005 57 228 7.0 18.0 0.00 0.00 0.00 43 1011.5
20260503221504 57 228 6.0 16.0 0.00 0.00 0.00 44 1011.5
20260503221005 57 228 7.0 16.0 0.00 0.00 0.00 43 1011.5
20260503220504 57 214 9.0 17.0 0.00 0.00 0.00 42 1011.5
20260503215504 57 227 9.0 20.0 0.00 0.00 0.00 42 1011.4
20260503214504 57 224 9.0 18.0 0.00 0.00 0.00 42 1011.6
20260503214004 58 225 8.0 18.0 0.00 0.00 0.00 42 1011.4
20260503213504 58 241 8.0 21.0 0.00 0.00 0.00 41 1011.5
20260503212504 58 242 8.0 18.0 0.00 0.00 0.00 41 1011.4
20260503212004 58 251 8.0 19.0 0.00 0.00 0.00 44 1011.5
20260503211504 58 253 10.0 25.0 0.00 0.00 0.00 44 1011.3
20260503211005 58 246 11.0 25.0 0.00 0.00 0.00 43 1011.4
20260503210005 58 248 9.0 19.0 0.00 0.00 0.00 41 1011.3
20260503205504 57 246 10.0 21.0 0.00 0.00 0.00 42 1011.4
20260503205004 58 247 11.0 21.0 0.00 0.00 0.00 40 1011.3
20260503204504 58 246 10.0 23.0 0.00 0.00 0.00 40 1011.5
20260503204005 58 251 8.0 23.0 0.00 0.00 0.00 46 1011.5
20260503203504 58 253 8.0 19.0 0.00 0.00 0.00 42 1011.5
20260503202504 58 219 10.0 22.0 0.00 0.00 0.00 43 1011.7
20260503202004 58 224 11.0 25.0 0.00 0.00 0.00 41 1011.8
20260503201504 58 240 11.0 25.0 0.00 0.00 0.00 41 1012.0
20260503201005 58 259 11.0 21.0 0.00 0.00 0.00 43 1011.9
20260503200005 59 247 11.0 20.0 0.00 0.00 0.00 41 1012.0
20260503195504 59 227 8.0 18.0 0.00 0.00 0.00 40 1012.1
20260503195004 59 217 8.0 20.0 0.00 0.00 0.00 39 1012.0
20260503194504 58 227 9.0 20.0 0.00 0.00 0.00 40 1012.3
20260503193005 59 247 10.0 22.0 0.00 0.00 0.00 39 1012.5
20260503192005 60 252 11.0 25.0 0.00 0.00 0.00 37 1012.6
20260503191504 58 258 11.0 28.0 0.00 0.00 0.00 41 1012.6
20260503191004 59 259 11.0 28.0 0.00 0.00 0.00 40 1012.6
20260503190504 59 251 12.0 21.0 0.00 0.00 0.00 39 1012.8
20260503190005 59 240 11.0 21.0 0.00 0.00 0.00 39 1012.7
20260503185504 58 236 10.0 21.0 0.00 0.00 0.00 44 1012.8
20260503184504 60 248 9.0 21.0 0.00 0.00 0.00 42 1012.8
20260503184003 60 255 11.0 21.0 0.00 0.00 0.00 40 1012.9
20260503183504 60 258 10.0 21.0 0.00 0.00 0.00 39 1013.1
20260503183004 59 253 9.0 20.0 0.00 0.00 0.00 44 1013.1
20260503182505 58 246 10.0 20.0 0.00 0.00 0.00 41 1013.0
20260503181505 59 251 11.0 24.0 0.00 0.00 0.00 41 1013.3
20260503181004 59 264 12.0 24.0 0.00 0.00 0.00 38 1013.3
20260503180504 59 249 12.0 23.0 0.00 0.00 0.00 41 1013.2
20260503180005 58 234 11.0 23.0 0.00 0.00 0.00 40 1013.2
20260503175004 59 241 11.0 24.0 0.00 0.00 0.00 43 1013.5
20260503174003 57 241 11.0 20.0 0.00 0.00 0.00 42 1013.5
20260503173504 57 247 10.0 20.0 0.00 0.00 0.00 42 1013.5
20260503173004 58 258 9.0 17.0 0.00 0.00 0.00 47 1013.6
20260503172504 58 269 11.0 22.0 0.00 0.00 0.00 45 1013.8
20260503172004 57 258 13.0 22.0 0.00 0.00 0.00 43 1013.8
20260503171504 58 248 10.0 21.0 0.00 0.00 0.00 46 1014.0
20260503171004 58 246 7.0 16.0 0.00 0.00 0.00 45 1013.9
20260503170504 57 244 9.0 20.0 0.00 0.00 0.00 44 1014.0
20260503151004 52 238 8.0 17.0 0.00 0.01 0.00 49 1015.0
20260503150505 52 236 8.0 19.0 0.00 0.01 0.00 49 1015.1
20260503131004 45 239 6.0 14.0 0.00 0.01 0.00 58 1015.5
20260503130503 45 240 5.0 11.0 0.00 0.01 0.00 60 1015.5
20260503110504 29 233 1.0 3.0 0.00 0.04 0.00 96 1014.9
20260503090504 29 233 2.0 3.0 0.00 0.05 0.00 95 1014.9
20260503081503 30 225 1.0 3.0 0.00 0.05 0.00 95 1014.9
20260503081004 30 224 2.0 5.0 0.00 0.05 0.00 95 1014.9
20260503080503 30 223 2.0 5.0 0.00 0.05 0.00 95 1014.9
20260503072504 30 214 2.0 5.0 0.00 0.05 0.00 95 1014.8
20260503072003 30 214 2.0 5.0 0.00 0.05 0.00 95 1014.8
20260503071504 30 215 2.0 4.0 0.00 0.05 0.00 94 1014.8
20260503071003 30 214 1.0 4.0 0.00 0.05 0.00 94 1014.8
20260503070504 30 215 1.0 3.0 0.00 0.05 0.00 94 1014.8
20260503055004 32 214 1.0 3.0 0.00 0.06 0.00 92 1015.2
20260503054503 32 214 1.0 3.0 0.00 0.07 0.00 92 1015.2
20260503054004 32 214 1.0 3.0 0.00 0.07 0.00 92 1015.2
20260503053504 32 214 1.0 3.0 0.00 0.07 0.00 92 1015.2
20260503053003 32 213 1.0 3.0 0.00 0.07 0.00 92 1015.3
20260503051503 33 239 1.0 4.0 0.00 0.07 0.00 91 1015.2
20260503051003 33 253 1.0 2.0 0.00 0.07 0.00 91 1015.3
20260503050504 33 253 1.0 2.0 0.00 0.07 0.00 91 1015.3
20260503050011 33 253 0.0 2.0 0.00 0.07 0.00 91 1015.4
20260503045511 33 253 0.0 1.0 0.00 0.07 0.00 90 1015.4
20260503045011 34 253 0.0 1.0 0.00 0.07 0.00 90 1015.4
20260503044511 34 253 0.0 2.0 0.00 0.07 0.00 90 1015.4
20260503044011 34 253 0.0 2.0 0.00 0.07 0.00 90 1015.4
20260503043511 34 253 0.0 1.0 0.00 0.07 0.00 90 1015.4
20260503043011 35 254 0.0 3.0 0.00 0.07 0.00 90 1015.3
20260503042511 35 255 1.0 3.0 0.00 0.07 0.00 90 1015.3
20260503042011 36 256 1.0 3.0 0.00 0.07 0.00 90 1015.4
20260503041511 36 256 1.0 3.0 0.00 0.07 0.00 89 1015.4
20260503041011 36 258 1.0 3.0 0.00 0.07 0.00 89 1015.4
20260503040511 36 258 1.0 2.0 0.00 0.07 0.00 89 1015.4
20260503040011 36 258 0.0 2.0 0.00 0.07 0.00 89 1015.5
20260503035510 36 259 0.0 2.0 0.00 0.07 0.07 89 1015.4
20260503035011 36 258 0.0 1.0 0.00 0.07 0.07 88 1015.4
20260503034511 36 258 0.0 1.0 0.00 0.07 0.07 88 1015.5
20260503034011 36 0 0.0 0.0 0.00 0.07 0.07 88 1015.5
20260503033511 36 259 0.0 2.0 0.00 0.07 0.07 87 1015.5
20260503033011 36 258 0.0 2.0 0.00 0.07 0.07 87 1015.5
20260503032510 37 259 0.0 2.0 0.00 0.07 0.07 87 1015.5
20260503032011 37 259 0.0 2.0 0.00 0.07 0.07 87 1015.5
20260503031511 37 258 0.0 2.0 0.00 0.07 0.07 87 1015.6
20260503030511 37 259 1.0 3.0 0.00 0.07 0.07 87 1015.6
20260503030011 37 259 1.0 2.0 0.00 0.07 0.07 86 1015.7
20260503025511 37 258 0.0 1.0 0.00 0.07 0.07 86 1015.7
20260503025011 37 259 1.0 2.0 0.00 0.07 0.07 85 1015.7
20260503024511 37 259 1.0 2.0 0.00 0.07 0.07 85 1015.8
20260503023512 37 259 0.0 2.0 0.00 0.07 0.07 86 1015.9
20260503023011 37 258 0.0 2.0 0.00 0.07 0.07 85 1016.0
20260503022010 37 258 1.0 2.0 0.00 0.07 0.07 81 1015.9
20260503021511 38 259 1.0 2.0 0.00 0.07 0.07 80 1015.9
20260503021010 38 259 1.0 3.0 0.00 0.07 0.07 80 1016.0
20260503020511 38 259 2.0 3.0 0.00 0.07 0.07 82 1015.9
20260503015511 38 259 1.0 2.0 0.00 0.07 0.07 80 1016.0
20260503015010 38 259 1.0 2.0 0.00 0.07 0.07 81 1015.9
20260503014511 38 259 1.0 2.0 0.00 0.07 0.07 81 1015.9
20260503014011 38 259 1.0 3.0 0.00 0.07 0.07 81 1015.9
20260503013511 38 259 1.0 3.0 0.00 0.07 0.07 80 1015.9
20260503013010 38 259 1.0 2.0 0.00 0.07 0.07 80 1015.8
20260503012511 38 259 1.0 3.0 0.00 0.07 0.07 79 1015.9
20260503012010 38 259 1.0 3.0 0.00 0.07 0.07 77 1015.9
20260503011511 38 259 1.0 3.0 0.00 0.07 0.07 77 1015.8
20260503011010 38 259 1.0 3.0 0.00 0.07 0.07 77 1015.9
20260503010511 38 259 2.0 3.0 0.00 0.07 0.07 77 1015.8
20260503010010 38 259 1.0 3.0 0.00 0.07 0.07 76 1015.8
20260503005511 38 259 1.0 2.0 0.00 0.07 0.07 76 1015.9
20260503004511 38 259 1.0 2.0 0.00 0.07 0.07 76 1015.8
20260503004011 39 259 1.0 2.0 0.00 0.07 0.07 74 1015.8
20260503003510 38 259 1.0 2.0 0.00 0.07 0.07 73 1015.8
20260503002510 39 259 1.0 3.0 0.00 0.07 0.07 72 1015.8